BEIDOU-3 M14 (C33)

Last updated on Sat Aug 15 2026 00:03:26 GMT+0000 (Coordinated Universal Time)

1 43623U 18072B 26225.31857139 -.00000031 00000+0 00000+0 0 9993 2 43623 56.6780 60.7706 0004799 20.5887 339.4960 1.86230976 53719
UTC large
Height (km)
Speed (km/s)
/
Latitude / Longitude
Inclination (degrees)
Orbital Period (minutes)
Azimuth
Elevation
Range (km)
Doppler Factor

Next 0 passes for location: London (51.5072 / 0.1276)

No passes found over London.